"Pseudo-MPEC" for P10NHow

Created 2019 May 30 2:07:17 UT using Find_Orb

Click here for an explanation of pseudo-MPECs

 
 Astrometry: 
     P10NHow  C2019 05 08xHE%:mo!S)FT$6ZU%vA#CWhpy-vd,t2Astrometryb@l[49P5G35F51
     P10NHow  C2019 05 08!7L5Gredacted;+2BbUyPR7=wv)`puA^iqs6^ckuivt8\H=2NJI*F51
     P10NHow  C2019 05 08gJ`clickQF[5i,c%jLJ@;P5C[qER]s`here#C`]n!hn\X]CA3G@-F51
     P10NHow  C2019 05 08bJJQm_lk_enyBk_Z9:aQZxt!:aH4od_?;,X=yIVdqUacou/wd`XbF51
     P10NHow KC2019 05 11Z3Wv6kk*dp7Bfor36kDTcyoLHj(XBFrTc-gt)W?t2J^(aowq9+4mH21
     P10NHow KC2019 05 11!:;kws3CFA`ScZ\@TVR$nZ?t*pEC!Z6N,nKY[o%W/X@D:`xJmV'uH21
     P10NHow KC2019 05 1181k8/explanationFLyI+qLe,ujc^#)(=Dhk\`r1S^Vkm#qFqRwwH21

Station data:
(F51) Pan-STARRS 1, Haleakala  (N20.707235 W156.255910)  US/Hawaii.
   Observers N. Primak, A. Schultz, S. Watters, J. Thiel, T. Goggia. Measurer
   PS1 Science Consortium. 1.8-m Ritchey-Chrétien + CCD.
(H21) Astronomical Research Observatory, Westfield  (N39.483057 W87.968270)
   US/Illinois. 0.76-m f/3.0 astrograph + CCD.

Orbital elements:  P10NHow
   Perihelion 2018 Oct 2.634500 +/- 267 TT = 15:13:40 (JD 2458394.134500)
Epoch 2019 May 11.0 TT = JDT 2458614.5   Earth MOID: 0.6788   Ma: 0.0049
M  90.30298215 +/- 90               (J2000 ecliptic)          AutoNEOCP
n   0.40978729 +/- 0.149            Peri.  344.87696 +/- 52
a   1.79513475 +/- 0.437            Node   149.26528 +/- 29
e   0.0732313 +/- 0.222             Incl.   19.50766 +/- 7
P   2.41/878.49d           H 20.3   G  0.15   U 11.5  SR
q 1.66367469 +/- 0.25    Q 1.92659482 +/- 2.75
From 7 observations 2019 May 8-11; mean residual 0".18
Residuals in arcseconds: 
190508 F51  .24-  .17+    190508 F51  .22+  .26-    190511 H21  .28-  .24+    
190508 F51  .02-  .03-    190511 H21  .12+  .03-    
190508 F51  .05+  .11+    190511 H21  .16+  .20-    

Ephemerides (geocentric):
Date (UTC) HH   RA              Dec         delta   r     elong  mag " sig PA
---- -- -- --  -------------   -----------  ------ ------ -----  --- ---- ---
2019 05 30 02  15 52 10.525   +20 52 24.00  .94757 1.8230 136.7 22.6 3102 153
2019 05 30 03  15 52 07.885   +20 52 13.65  .94769 1.8230 136.7 22.6 3116 153
2019 05 30 04  15 52 05.247   +20 52 03.25  .94782 1.8230 136.7 22.6 3130 153
2019 05 30 05  15 52 02.610   +20 51 52.79  .94794 1.8231 136.7 22.6 3145 153
2019 05 30 06  15 51 59.974   +20 51 42.26  .94807 1.8231 136.6 22.6 3159 153
2019 05 30 07  15 51 57.341   +20 51 31.67  .94819 1.8232 136.6 22.6 3173 153
2019 05 30 08  15 51 54.709   +20 51 21.03  .94832 1.8232 136.6 22.6 3187 153
2019 05 30 09  15 51 52.078   +20 51 10.32  .94844 1.8232 136.6 22.6 3201 153
2019 05 30 10  15 51 49.450   +20 50 59.55  .94857 1.8233 136.6 22.6 3216 153
2019 05 30 11  15 51 46.823   +20 50 48.73  .94870 1.8233 136.6 22.6 3230 153
2019 05 30 12  15 51 44.197   +20 50 37.84  .94882 1.8233 136.6 22.6 3245 153
2019 05 30 13  15 51 41.574   +20 50 26.89  .94895 1.8234 136.5 22.6 3259 153
2019 05 30 14  15 51 38.952   +20 50 15.88  .94908 1.8234 136.5 22.6 3273 153
2019 05 30 15  15 51 36.332   +20 50 04.81  .94920 1.8235 136.5 22.6 3288 153
2019 05 30 16  15 51 33.713   +20 49 53.69  .94933 1.8235 136.5 22.6 3302 153
2019 05 30 17  15 51 31.097   +20 49 42.50  .94946 1.8235 136.5 22.6 3317 153
2019 05 30 18  15 51 28.482   +20 49 31.25  .94959 1.8236 136.5 22.6 3332 153
2019 05 30 19  15 51 25.869   +20 49 19.94  .94972 1.8236 136.5 22.6 3346 153
2019 05 30 20  15 51 23.257   +20 49 08.57  .94984 1.8236 136.4 22.6 3361 153
2019 05 30 21  15 51 20.647   +20 48 57.14  .94997 1.8237 136.4 22.6 3376 153
2019 05 30 22  15 51 18.039   +20 48 45.65  .95010 1.8237 136.4 22.6 3390 153
2019 05 30 23  15 51 15.433   +20 48 34.10  .95023 1.8238 136.4 22.6 3405 153
2019 05 31 00  15 51 12.829   +20 48 22.49  .95036 1.8238 136.4 22.6 3420 152
2019 05 31 01  15 51 10.226   +20 48 10.82  .95049 1.8238 136.4 22.6 3435 152
2019 05 31 02  15 51 07.625   +20 47 59.09  .95062 1.8239 136.4 22.6 3450 152
2019 05 31 03  15 51 05.026   +20 47 47.30  .95075 1.8239 136.3 22.6 3465 152
2019 05 31 04  15 51 02.429   +20 47 35.46  .95088 1.8239 136.3 22.6 3480 152
2019 05 31 05  15 50 59.834   +20 47 23.55  .95101 1.8240 136.3 22.6 3495 152
2019 05 31 06  15 50 57.240   +20 47 11.58  .95114 1.8240 136.3 22.6 3510 152
2019 05 31 07  15 50 54.648   +20 46 59.55  .95128 1.8241 136.3 22.6 3525 152
2019 05 31 08  15 50 52.058   +20 46 47.46  .95141 1.8241 136.3 22.6 3540 152
2019 05 31 09  15 50 49.470   +20 46 35.32  .95154 1.8241 136.3 22.6 3555 152
2019 05 31 10  15 50 46.884   +20 46 23.11  .95167 1.8242 136.3 22.6 3571 152
2019 05 31 11  15 50 44.300   +20 46 10.84  .95180 1.8242 136.2 22.6 3586 152
2019 05 31 12  15 50 41.717   +20 45 58.51  .95194 1.8242 136.2 22.6 3601 152
2019 05 31 13  15 50 39.137   +20 45 46.13  .95207 1.8243 136.2 22.6 3617 152
2019 05 31 14  15 50 36.558   +20 45 33.68  .95220 1.8243 136.2 22.6 3632 152
2019 05 31 15  15 50 33.981   +20 45 21.18  .95234 1.8244 136.2 22.6 3647 152
2019 05 31 16  15 50 31.406   +20 45 08.61  .95247 1.8244 136.2 22.6 3663 152
2019 05 31 17  15 50 28.833   +20 44 55.99  .95260 1.8244 136.2 22.6 3678 152
2019 05 31 18  15 50 26.261   +20 44 43.31  .95274 1.8245 136.1 22.6 3694 152
2019 05 31 19  15 50 23.692   +20 44 30.57  .95287 1.8245 136.1 22.6 3709 152
2019 05 31 20  15 50 21.125   +20 44 17.76  .95301 1.8245 136.1 22.6 3725 152
2019 05 31 21  15 50 18.559   +20 44 04.90  .95314 1.8246 136.1 22.6 3741 152
2019 05 31 22  15 50 15.996   +20 43 51.98  .95328 1.8246 136.1 22.6 3756 152
2019 05 31 23  15 50 13.434   +20 43 39.00  .95341 1.8247 136.1 22.6 3772 152
2019 06 01 00  15 50 10.874   +20 43 25.97  .95355 1.8247 136.0 22.6 3788 152
2019 06 01 01  15 50 08.317   +20 43 12.87  .95368 1.8247 136.0 22.6 3804 152